Location: *
(43.9905°S, 176.4941°W)
Time: 14:39:57
(UTC+00:00)

Envisat - Visible Passes

Search period start: 29 February 2020 00:00
Search period end: 10 March 2020 00:00
Orbit: 764 x 766 km, 98.1° (Epoch: 28 February)

Date Brightness Start Highest point End Pass type
(mag) Time Alt. Az. Time Alt. Az. Time Alt. Az.
29 Feb 4.3 07:03:30 10° S 07:08:25 46° WSW 07:13:18 10° NW visible
29 Feb 5.0 16:40:47 10° NE 16:45:24 35° ESE 16:50:03 10° S visible
01 Mar 6.3 08:07:21 10° SSW 08:10:03 14° WSW 08:12:44 10° W visible
01 Mar 6.1 16:05:38 10° ENE 16:09:00 18° ESE 16:12:23 10° SSE visible
02 Mar 5.3 07:29:21 10° S 07:33:43 28° WSW 07:38:02 10° WNW visible
03 Mar 3.9 06:52:06 10° S 06:57:10 58° WSW 07:02:11 10° NNW visible
03 Mar 5.4 16:29:51 10° ENE 16:34:11 29° ESE 16:38:34 10° S visible
04 Mar 6.1 07:55:33 10° SSW 07:58:53 18° WSW 08:02:13 10° W visible
04 Mar 6.3 15:55:06 10° E 15:57:51 15° ESE 16:00:36 10° SSE visible
05 Mar 4.9 07:17:51 10° S 07:22:30 34° WSW 07:27:05 10° NW visible
05 Mar 4.3 16:54:36 10° NE 16:59:29 47° ESE 17:04:25 10° S visible
06 Mar 6.6 08:22:50 10° SW 08:23:59 11° SW 08:25:07 10° WSW visible
06 Mar 5.7 16:19:00 10° ENE 16:23:00 24° ESE 16:27:01 10° SSE visible
07 Mar 5.8 07:43:53 10° SSW 07:47:44 22° WSW 07:51:32 10° WNW visible
07 Mar 6.4 15:44:54 10° ESE 15:46:43 12° ESE 15:48:32 10° SE visible
08 Mar 4.5 07:06:25 10° S 07:11:16 43° WSW 07:16:05 10° NW visible
08 Mar 4.8 16:43:33 10° NE 16:48:15 38° ESE 16:52:59 10° S visible
09 Mar 6.3 08:10:28 10° SSW 08:12:52 13° WSW 08:15:14 10° W visible
09 Mar 6.0 16:08:15 10° ENE 16:11:49 19° ESE 16:15:24 10° SSE visible
